Regional Weather Roundup
Issued by NWS

Home | Current Version | Previous Version | Graphics & Text | Print | Product List | Glossary On
Versions: 1 2 3 4 5 6 7 8 9 10 11 12 13 14 15 16 17 18 19 20 21 22 23 24 25 26 27 28 29 30 31 32 33 34 35 36 37 38 39 40 41 42 43 44 45 46 47 48 49 50
000
ASUS43 KIND 181009
RWRIN

WEATHER ROUNDUP FOR INDIANA
NATIONAL WEATHER SERVICE INDIANAPOLIS IN
600 AM EDT FRI APR 18 2014

NOTE: "FAIR" INDICATES FEW OR NO CLOUDS BELOW 12,000 FEET WITH NO
SIGNIFICANT WEATHER AND/OR OBSTRUCTIONS TO VISIBILITY.

* - STATION DOES NOT REPORT WEATHER SUCH AS PRECIPITATION OR FOG.

+ - STATION NOT QUALITY CONTROLLED BY THE NATIONAL WEATHER SERVICE.
    USE DATA WITH CAUTION...ESPECIALLY DEWPOINT AND RELATIVE
    HUMIDITY OBSERVATIONS.

INZ001>003-010>013-019-020-181100-
NORTHWEST INDIANA

CITY           SKY/WX    TMP DP  RH WIND       PRES   REMARKS
GARY /AIRPORT/ CLOUDY    48  41  76 NW5       30.24R
LA PORTE +     CLOUDY    46  41  84 CALM      30.24S
MICHIGAN CITY+ CLOUDY    43  37  81 CALM      30.25R
MONTICELLO +   CLOUDY    45  41  85 CALM      30.26R
RENSSELAER +   CLOUDY    46  41  81 CALM      30.26R
VALPARAISO     CLOUDY    48  41  76 S6        30.25R

$$

LMZ046-743>745-181100-
SOUTHERN LAKE MICHIGAN

STATION/POSITION TIME  TEMP WIND        PRES
                       AIR  DIR/SP/G
                 (UTC) (F)  (DEG/KT/KT) (MB)
MICHIGAN CITY    1000   45  230/  3/  3   N/A

$$

INZ004-005-014>016-021>024-181100-
NORTH CENTRAL INDIANA

CITY           SKY/WX    TMP DP  RH WIND       PRES   REMARKS
GOSHEN         CLOUDY    49  42  77 S3        30.25R
LOGANSPORT +   CLOUDY    45  39  81 CALM      30.27R
PERU/GRISSOM   CLOUDY    47  44  90 S2        30.26R
ROCHESTER +    CLOUDY    50  41  71 CALM      30.26R
SOUTH BEND     CLOUDY    46  42  86 CALM      30.25R
WARSAW +       CLOUDY    45  39  81 CALM      30.26R

$$

INZ006>009-017-018-025>027-181100-
NORTHEAST INDIANA

CITY           SKY/WX    TMP DP  RH WIND       PRES   REMARKS
ANGOLA *+      MOCLDY    46  39  76 CALM      30.25R
AUBURN +       CLOUDY    45  36  70 CALM      30.26R
FORT WAYNE     CLOUDY    43  36  76 SW3       30.27R

$$

INZ028-029-035-036-043>045-051>053-181100-
WEST CENTRAL INDIANA

CITY           SKY/WX    TMP DP  RH WIND       PRES   REMARKS
GREENCASTLE +  PTCLDY    43  37  81 CALM      30.26S
LAFAYETTE      CLOUDY    46  41  82 CALM      30.26R
TERRE HAUTE    MOCLDY    45  40  82 CALM      30.26R

$$

INZ030>032-037>040-046>048-054>057-064-065-181100-
CENTRAL INDIANA

CITY           SKY/WX    TMP DP  RH WIND       PRES   REMARKS
CP ATTERBURY + CLEAR     36  34  93 CALM      30.27R
INDIANAPOLIS   PTCLDY    42  35  76 NW7       30.27R
-EAGLE CREEK   PTCLDY    44  39  82 CALM      30.26R
KOKOMO *+        N/A    N/A N/A N/A MISG        N/A
MARION +       MOCLDY    41  34  75 CALM      30.26S
MT COMFORT *+  PTCLDY    39  39 100 CALM      30.27R
SHELBYVILLE    PTCLDY    42  36  79 CALM      30.26R
ZIONSVILLE +   MOCLDY    40  35  80 CALM      30.26F

$$

INZ033-034-041-042-049-050-058-059-181100-
EAST CENTRAL INDIANA

CITY           SKY/WX    TMP DP  RH WIND       PRES   REMARKS
MUNCIE         PTCLDY    43  35  73 CALM      30.26R

$$

INZ060-061-067>069-081>083-085>088-181100-
SOUTHWEST INDIANA

CITY           SKY/WX    TMP DP  RH WIND       PRES   REMARKS
EVANSVILLE     CLEAR     45  39  79 CALM      30.27S
HUNTINGBURG *+ CLEAR     43  37  81 CALM      30.27S
WASHINGTON +   CLEAR     41  40  96 CALM      30.26S

$$

INZ062-063-066-070>080-084-089>092-181100-
SOUTH CENTRAL AND SOUTHEAST INDIANA

CITY           SKY/WX    TMP DP  RH WIND       PRES   REMARKS
BLOOMINGTON    PTCLDY    40  35  83 CALM      30.27R
SEYMOUR +      PTCLDY    37  27  65 CALM      30.28

$$




USA.gov is the U.S. government's official web portal to all federal, state and local government web resources and services.